EW6613 Weather Reports


Display with metric or nautical units.
time (UTC)temp
F
wind
direction
speed
MPH
gust
MPH
rain 1hr
in
rain 24hr
in
rain mn
in
humidity
%
barometer
mb
20260504044553 40 205 0.0 0.0 0.06 0.84 0.07 96 975.0
20260504043055 40 166 0.0 0.0 0.05 0.83 0.06 96 975.1
20260504041547 40 210 0.0 0.0 0.05 0.82 0.05 95 975.8
20260504040046 40 31 0.0 0.0 0.03 0.80 0.03 95 976.6
20260504034550 40 204 0.0 0.0 0.02 0.79 0.02 95 977.3
20260504033039 39 117 0.0 0.0 0.02 0.78 0.01 95 977.9
20260504031540 40 61 0.0 0.0 0.01 0.77 0.00 95 978.7
20260504030035 40 183 0.0 0.0 0.01 0.77 0.00 94 979.8
20260504024531 40 196 0.0 0.0 0.00 0.76 0.76 94 980.6
20260504023029 41 156 0.0 0.0 0.00 0.76 0.76 93 981.1
20260504021526 42 194 0.0 0.0 0.00 0.76 0.76 94 982.2
20260504020031 42 169 0.0 0.0 0.01 0.76 0.76 94 982.8
20260504014522 43 256 0.0 0.0 0.02 0.76 0.76 95 983.4
20260504013015 43 280 0.0 0.0 0.02 0.76 0.76 96 984.1
20260504011514 42 129 0.0 0.0 0.04 0.76 0.76 97 984.2
20260504010011 42 150 0.0 0.0 0.05 0.76 0.76 96 984.7
20260504004514 42 80 0.0 0.0 0.06 0.75 0.75 96 985.2
20260504003007 42 112 0.0 0.0 0.07 0.73 0.73 96 985.6
20260504001515 42 54 0.0 0.0 0.09 0.72 0.72 96 986.0
20260504000003 41 53 0.0 0.0 0.15 0.71 0.71 96 986.8
20260503234502 41 64 0.0 0.0 0.18 0.69 0.69 96 987.8
20260503233059 41 86 0.0 0.0 0.21 0.66 0.66 96 988.7
20260503231558 40 50 0.0 0.0 0.24 0.64 0.64 96 989.0
20260503230058 40 9 0.0 0.0 0.20 0.56 0.56 96 990.6
20260503224600 40 93 0.0 0.0 0.20 0.51 0.51 96 991.3
20260503223048 40 70 0.0 0.0 0.19 0.45 0.45 96 992.7
20260503221557 40 51 0.0 0.0 0.18 0.40 0.40 96 993.7
20260503220040 39 106 0.0 0.0 0.17 0.35 0.35 96 994.5
20260503214541 39 61 0.0 0.0 0.17 0.30 0.30 96 994.9
20260503213042 39 27 0.0 0.0 0.20 0.26 0.26 96 995.7
20260503211535 38 116 0.0 0.0 0.17 0.22 0.22 96 996.1
20260503210034 38 48 0.0 0.0 0.13 0.18 0.18 96 996.2
20260503204532 38 108 0.0 0.0 0.09 0.13 0.13 96 997.1
20260503203034 38 26 0.0 0.0 0.02 0.06 0.06 96 997.7
20260503201526 38 43 0.0 0.0 0.02 0.05 0.05 95 998.8
20260503200026 38 88 0.0 0.0 0.02 0.05 0.05 94 999.5
20260503194522 41 66 0.0 0.0 0.02 0.04 0.04 95 1000.4
20260503193034 40 119 0.0 0.0 0.02 0.04 0.04 95 1001.1
20260503191538 41 33 0.0 0.0 0.02 0.03 0.03 94 1001.2
20260503190025 41 28 0.0 0.0 0.02 0.02 0.02 92 1001.9
20260503184514 42 90 0.0 0.0 0.02 0.02 0.02 92 1002.9
20260503183009 42 53 0.0 0.0 0.02 0.02 0.02 91 1004.3
20260503181506 43 42 0.0 0.0 0.02 0.02 0.02 88 1005.3
20260503180006 45 108 0.0 0.0 0.00 0.00 0.00 84 1006.1
20260503174504 46 65 0.0 0.0 0.00 0.00 0.00 80 1006.3
20260503173105 46 56 0.0 0.0 0.00 0.00 0.00 79 1007.6
20260503171556 46 86 0.0 0.0 0.00 0.00 0.00 77 1008.8
20260503170113 47 58 0.0 0.0 0.00 0.00 0.00 75 1008.9
20260503160104 48 88 0.0 0.0 0.00 0.00 0.00 75 1009.5
20260503081541 31 113 0.0 0.0 0.00 0.01 0.00 97 1015.7
20260503071531 32 113 0.0 0.0 0.00 0.01 0.00 97 1016.3
20260503054527 32 113 0.0 0.0 0.00 0.15 0.00 96 1016.8